Location: Gradaro
(45.0833°N, 10.8833°E)
Time: 23:08:01
(UTC+00:00)

Cosmos 2263 Rocket - Pass Details

Date: 24 April 2021
Orbit: 824 x 848 km, 71.0° (Epoch: 15 May)

Event Time Altitude Azimuth Distance (km) Brightness Sun altitude
Exits shadow 21:41:28 43° 247° (WSW) 1,153 2.8 -28.1°
Maximum altitude 21:43:01 57° 300° (WNW) 966 2.6 -28.2°
Drops below altitude 10° 21:48:31 10° 19° (NNE) 2,438 5.1 -28.6°
Sets 21:51:00 0° 24° (NNE) 3,377 5.9 -28.8°
